Weather History for KLNL - October, 2013

Change the Weather History Date:

Wednesday, October 23, 2013

  Actual Average (KEGV) Record (KEGV)
Temperature  
Mean Temperature 32 °F -  
Max Temperature 35 °F 55 °F 70 °F (1992)
Min Temperature 29 °F 29 °F 17 °F (1997)
Degree Days  
Heating Degree Days 34    
Moisture  
Dew Point 28 °F    
Average Humidity 88    
Maximum Humidity 95    
Minimum Humidity 75    
Precipitation  
Precipitation 0.04 in - - ()
Sea Level Pressure  
Sea Level Pressure 29.89 in    
Wind  
Wind Speed 5 mph (WNW)    
Max Wind Speed 9 mph    
Max Gust Speed 17 mph    
Visibility 8 miles    
Events Snow    
Averages and records for this station are not official NWS values.
T = Trace of Precipitation, MM = Missing Value Source: NWS Daily Summary

Daily Weather History Graph

Daily Weather History Graph

Search for Another Location

Airport or City:

Trip Planner

Search our weather history database for the weather conditions in past years. The results will help you decide how hot, cold, wet, or windy it might be!

Date:

Astronomy

Oct. 23, 2013 Rise Set
Actual Time 7:25 AM CDT 5:56 PM CDT
Civil Twilight 6:54 AM CDT 6:26 PM CDT
Nautical Twilight 6:19 AM CDT 7:01 PM CDT
Astronomical Twilight 5:44 AM CDT 7:36 PM CDT
Moon 9:18 PM CDT 11:50 AM CDT
Length of Visible Light 11h 32m
Length of Day
10h 30m
Waning Gibbous, 79% of the Moon is Illuminated
Oct 23
Waning Gibbous
Oct 26
Last Quarter
Nov 3
New
Nov 9
First Quarter
Nov 17
Full

Hourly Weather History & Observations

Time (CDT) Temp. Windchill Dew Point Humidity Pressure Visibility Wind Dir Wind Speed Gust Speed Precip Events Conditions
12:15 AM 31.5 °F 28.1 °F 29.5 °F 92% 29.91 in 10.0 mi West 3.5 mph - N/A   Overcast
12:35 AM 31.5 °F 28.1 °F 29.3 °F 92% 29.90 in 10.0 mi West 3.5 mph - N/A   Overcast
12:55 AM 31.5 °F 28.1 °F 29.3 °F 92% 29.90 in 10.0 mi West 3.5 mph - N/A   Overcast
1:15 AM 31.5 °F 26.8 °F 29.3 °F 92% 29.90 in 10.0 mi West 4.6 mph - N/A   Overcast
1:35 AM 31.5 °F 26.8 °F 29.3 °F 92% 29.90 in 10.0 mi West 4.6 mph - N/A   Overcast
1:55 AM 31.5 °F 28.1 °F 29.1 °F 91% 29.89 in 10.0 mi West 3.5 mph - N/A   Overcast
2:15 AM 31.1 °F 26.4 °F 28.4 °F 90% 29.89 in 10.0 mi West 4.6 mph - N/A   Overcast
2:35 AM 30.4 °F - 28.4 °F 92% 29.89 in 10.0 mi Calm Calm - N/A   Mostly Cloudy
2:55 AM 29.8 °F 24.9 °F 28.2 °F 94% 29.88 in 10.0 mi West 4.6 mph - N/A   Scattered Clouds
3:15 AM 29.8 °F 24.9 °F 28.4 °F 94% 29.88 in 10.0 mi West 4.6 mph - N/A   Mostly Cloudy
3:35 AM 30.7 °F 26.0 °F 28.4 °F 91% 29.87 in 10.0 mi WNW 4.6 mph - N/A   Overcast
3:55 AM 30.6 °F - 28.8 °F 93% 29.87 in 2.5 mi Calm Calm - N/A Snow Light Snow
4:15 AM 30.6 °F 25.8 °F 29.1 °F 94% 29.87 in 4.0 mi WNW 4.6 mph - N/A Snow Light Snow
4:35 AM 30.6 °F 27.1 °F 29.1 °F 94% 29.87 in 3.0 mi WNW 3.5 mph - N/A Snow Light Snow
4:55 AM 30.2 °F 25.4 °F 28.8 °F 94% 29.87 in 7.0 mi West 4.6 mph - N/A Snow Light Snow
5:15 AM 30.0 °F 26.5 °F 28.4 °F 94% 29.87 in 10.0 mi West 3.5 mph - N/A   Overcast
5:35 AM 30.2 °F 25.4 °F 28.9 °F 95% 29.87 in 5.0 mi West 4.6 mph - N/A Snow Light Snow
5:55 AM 30.6 °F 24.7 °F 28.9 °F 94% 29.87 in 2.0 mi WNW 5.8 mph - N/A Snow Light Snow
6:15 AM 30.2 °F 24.3 °F 28.4 °F 93% 29.87 in 10.0 mi West 5.8 mph - N/A Snow Light Snow
6:35 AM 30.2 °F 26.7 °F 28.0 °F 92% 29.87 in 10.0 mi West 3.5 mph - N/A   Overcast
6:55 AM 29.8 °F 26.3 °F 27.7 °F 92% 29.87 in 10.0 mi WSW 3.5 mph - N/A   Overcast
7:15 AM 29.3 °F 25.6 °F 27.5 °F 93% 29.86 in 10.0 mi WSW 3.5 mph - N/A   Overcast
7:35 AM 29.3 °F 25.6 °F 27.5 °F 93% 29.87 in 10.0 mi West 3.5 mph - N/A   Overcast
7:55 AM 29.5 °F 25.9 °F 27.3 °F 92% 29.87 in 10.0 mi West 3.5 mph - N/A   Overcast
8:15 AM 29.7 °F 24.7 °F 27.5 °F 92% 29.87 in 10.0 mi West 4.6 mph - N/A   Overcast
8:35 AM 30.0 °F 25.2 °F 28.0 °F 92% 29.87 in 10.0 mi West 4.6 mph - N/A   Overcast
8:55 AM 30.2 °F 24.3 °F 28.2 °F 92% 29.87 in 7.0 mi West 5.8 mph - N/A   Mostly Cloudy
9:15 AM 31.1 °F 24.5 °F 28.2 °F 89% 29.87 in 10.0 mi WNW 6.9 mph - N/A   Mostly Cloudy
9:35 AM 31.6 °F 26.0 °F 28.2 °F 87% 29.87 in 10.0 mi West 5.8 mph - N/A   Overcast
9:55 AM 31.8 °F 24.6 °F 28.4 °F 87% 29.88 in 10.0 mi WNW 8.1 mph - N/A   Overcast
10:15 AM 32.0 °F 25.6 °F 29.1 °F 89% 29.88 in 5.0 mi WNW 6.9 mph - N/A Snow Light Snow
10:35 AM 31.6 °F 28.3 °F 29.8 °F 93% 29.89 in 0.5 mi NW 3.5 mph - N/A Snow Light Snow
10:55 AM 32.0 °F 26.4 °F 29.8 °F 92% 29.89 in 1.0 mi WNW 5.8 mph - N/A Snow Light Snow
11:15 AM 32.0 °F 27.5 °F 30.2 °F 93% 29.89 in 2.5 mi WNW 4.6 mph - N/A Snow Light Snow
11:35 AM 32.0 °F 26.4 °F 30.2 °F 93% 29.89 in 1.0 mi WNW 5.8 mph - N/A Snow Light Snow
11:55 AM 32.9 °F 27.5 °F 29.5 °F 87% 29.89 in 10.0 mi NNW 5.8 mph - N/A   Overcast
12:15 PM 33.1 °F 26.9 °F 28.8 °F 84% 29.89 in 10.0 mi NW 6.9 mph - 0.02 in   Overcast
12:35 PM 32.7 °F 26.4 °F 28.9 °F 86% 29.89 in 1.8 mi NW 6.9 mph - 0.02 in Snow Light Snow
12:55 PM 33.3 °F 28.9 °F 30.0 °F 88% 29.89 in 10.0 mi WNW 4.6 mph - 0.04 in   Overcast
1:15 PM 34.2 °F 29.0 °F 28.9 °F 81% 29.88 in 10.0 mi WNW 5.8 mph - N/A   Overcast
1:35 PM 34.0 °F 28.8 °F 28.2 °F 79% 29.87 in 10.0 mi WNW 5.8 mph - N/A   Overcast
1:55 PM 34.3 °F 29.2 °F 28.6 °F 79% 29.87 in 2.5 mi WNW 5.8 mph - N/A Snow Light Snow
2:15 PM 32.0 °F 25.6 °F 29.5 °F 90% 29.88 in 1.0 mi NW 6.9 mph 16.1 mph N/A Snow Light Snow
2:35 PM 32.5 °F 25.5 °F 30.2 °F 91% 29.88 in 0.8 mi WNW 8.1 mph 17.3 mph N/A Snow Light Snow
2:55 PM 34.2 °F 27.5 °F 29.5 °F 83% 29.89 in 10.0 mi WNW 8.1 mph 17.3 mph N/A   Overcast
3:15 PM 33.8 °F 27.7 °F 28.4 °F 81% 29.89 in 10.0 mi NW 6.9 mph 16.1 mph N/A   Overcast
3:35 PM 33.4 °F 25.9 °F 28.0 °F 81% 29.89 in 10.0 mi NW 9.2 mph - N/A   Overcast
3:55 PM 33.8 °F 27.0 °F 28.9 °F 82% 29.90 in 10.0 mi WNW 8.1 mph - N/A   Overcast
4:15 PM 33.1 °F 27.7 °F 28.4 °F 83% 29.90 in 10.0 mi WNW 5.8 mph - N/A   Overcast
4:35 PM 33.1 °F 25.5 °F 27.7 °F 81% 29.91 in 10.0 mi WNW 9.2 mph - N/A   Overcast
4:55 PM 32.9 °F 26.7 °F 27.1 °F 79% 29.91 in 10.0 mi WNW 6.9 mph - N/A   Overcast
5:15 PM 32.5 °F 27.1 °F 27.0 °F 80% 29.91 in 10.0 mi WNW 5.8 mph - N/A   Overcast
5:35 PM 32.2 °F 27.7 °F 27.1 °F 82% 29.91 in 10.0 mi WNW 4.6 mph - N/A   Overcast
5:55 PM 32.0 °F 27.5 °F 27.5 °F 83% 29.91 in 10.0 mi West 4.6 mph - N/A   Overcast
6:15 PM 32.0 °F 25.6 °F 26.6 °F 80% 29.91 in 10.0 mi WNW 6.9 mph - N/A   Overcast
6:35 PM 32.0 °F 24.8 °F 26.4 °F 80% 29.91 in 10.0 mi West 8.1 mph - N/A   Overcast
6:55 PM 32.0 °F 27.5 °F 25.0 °F 75% 29.92 in 10.0 mi WNW 4.6 mph - N/A   Overcast
7:15 PM 32.0 °F 27.5 °F 25.5 °F 77% 29.92 in 10.0 mi West 4.6 mph - N/A   Overcast
7:35 PM 32.0 °F 27.5 °F 25.7 °F 78% 29.92 in 10.0 mi WNW 4.6 mph - N/A   Overcast
7:55 PM 32.0 °F 25.6 °F 26.1 °F 79% 29.92 in 10.0 mi WNW 6.9 mph - N/A   Overcast
8:15 PM 31.8 °F 23.9 °F 26.4 °F 80% 29.92 in 10.0 mi WNW 9.2 mph - N/A   Overcast
8:35 PM 31.5 °F 24.2 °F 27.5 °F 85% 29.93 in 5.0 mi WNW 8.1 mph - N/A Snow Light Snow
8:55 PM 30.9 °F 24.3 °F 28.4 °F 90% 29.92 in 2.5 mi WNW 6.9 mph - N/A Snow Light Snow
9:15 PM 30.9 °F 24.3 °F 28.4 °F 90% 29.92 in 4.0 mi WNW 6.9 mph - N/A Snow Light Snow
9:35 PM 30.9 °F 26.2 °F 28.4 °F 90% 29.93 in 10.0 mi WNW 4.6 mph - N/A Snow Light Snow
9:55 PM 31.1 °F 25.4 °F 28.4 °F 90% 29.93 in 10.0 mi WNW 5.8 mph - N/A   Overcast
10:15 PM 31.1 °F - 28.8 °F 91% 29.93 in 10.0 mi Calm Calm - N/A   Overcast
10:35 PM 31.1 °F 26.4 °F 28.4 °F 90% 29.93 in 10.0 mi WNW 4.6 mph - N/A   Overcast
10:55 PM 31.1 °F 24.5 °F 28.4 °F 90% 29.93 in 10.0 mi WNW 6.9 mph - N/A   Overcast
11:15 PM 31.1 °F 23.7 °F 28.4 °F 90% 29.93 in 10.0 mi WNW 8.1 mph - N/A   Overcast
11:35 PM 31.1 °F 24.5 °F 28.4 °F 90% 29.93 in 10.0 mi WNW 6.9 mph - N/A   Overcast
11:55 PM 31.1 °F 23.1 °F 28.4 °F 90% 29.92 in 7.0 mi WNW 9.2 mph - N/A   Overcast